Tracking 27086 objects as of 22-Mar-2023
HD Live streaming from Space Station
objects crossing your sky now

STARLINK-3886

Track STARLINK-3886 now!
10-day predictions
STARLINK-3886 is classified as:


NORAD ID: 52582
Int'l Code: 2022-051AY
Perigee: 546.0 km
Apogee: 547.7 km
Inclination: 53.2 °
Period: 95.4 minutes
Semi major axis: 6917 km
RCS: Unknown
Launch date: May 13, 2022
Source: United States (US)
Launch site: AIR FORCE WESTERN TEST RANGE (AFWTR)
Your satellite tracking list
Your tracking list is empty




NASA's NSSDC Master Catalog

Two Line Element Set (TLE):
1 52582U 22051AY  23080.92775637  .00001864  00000-0  13517-3 0  9990
2 52582  53.2145 304.3219 0001222  85.4187 274.6944 15.08841159 47971
Source of the keplerian elements: AFSPC